This is the latest recevied weather packets stored in our database for station/object KC5TIL-3. If no packets are shown the sender has not sent any weather packets the latest 10 day(s).
| Time | Temp. | Humidity | Pressure | Rain* | Wind** | Luminosity | Snow |
|---|---|---|---|---|---|---|---|
| 1777200138 | 24.44° C | 77% | 1003.8 hPa | 0 mm | 2.68 m/s, 163° | - | - |
| 1777199534 | 24.44° C | 76% | 1003.8 hPa | 0 mm | 3.13 m/s, 219° | - | - |
| 1777199237 | 24.44° C | 76% | 1003.8 hPa | 0 mm | 3.13 m/s, 158° | - | - |
| 1777198636 | 24.44° C | 76% | 1003.8 hPa | 0 mm | 3.58 m/s, 150° | - | - |
| 1777198037 | 24.44° C | 75% | 1003.8 hPa | 0 mm | 2.68 m/s, 146° | - | - |
| 1777197739 | 24.44° C | 74% | 1003.8 hPa | 0 mm | 2.24 m/s, 140° | - | - |
| 1777197442 | 24.44° C | 74% | 1003.8 hPa | 0 mm | 2.24 m/s, 171° | - | - |
| 1777197140 | 24.44° C | 74% | 1003.8 hPa | 0 mm | 2.68 m/s, 144° | - | - |
| 1777196842 | 24.44° C | 74% | 1003.8 hPa | 0 mm | 2.68 m/s, 127° | - | - |
| 1777196242 | 24.44° C | 74% | 1003.8 hPa | 0 mm | 1.79 m/s, 119° | - | - |
| 1777195345 | 24.44° C | 74% | 1003.8 hPa | 0 mm | 2.68 m/s, 201° | - | - |
| 1777195053 | 24.44° C | 74% | 1003.8 hPa | 0 mm | 2.24 m/s, 164° | - | - |
| 1777195042 | 24.44° C | 74% | 1003.8 hPa | 0 mm | 2.24 m/s, 164° | - | - |
| 1777194743 | 24.44° C | 73% | 1003.8 hPa | 0 mm | 2.24 m/s, 126° | - | - |
| 1777194442 | 24.44° C | 73% | 1003.8 hPa | 0 mm | 2.24 m/s, 128° | - | - |
| 1777194145 | 25° C | 72% | 1003.8 hPa | 0 mm | 2.68 m/s, 163° | - | - |
| 1777193246 | 25° C | 71% | 1003.8 hPa | 0 mm | 3.58 m/s, 132° | - | - |
| 1777192647 | 25° C | 71% | 1003.8 hPa | 0 mm | 3.13 m/s, 118° | - | - |
| 1777192051 | 24.44° C | 70% | 1003.8 hPa | 0 mm | 1.79 m/s, 149° | - | - |
| 1777191750 | 24.44° C | 69% | 1003.8 hPa | 0 mm | 3.13 m/s, 137° | - | - |
| 1777191153 | 24.44° C | 68% | 1003.8 hPa | 0 mm | 4.02 m/s, 114° | - | - |
| 1777190256 | 24.44° C | 67% | 1003.8 hPa | 0 mm | 4.02 m/s, 131° | - | - |
| 1777189655 | 23.89° C | 65% | 1003.8 hPa | 0 mm | 4.02 m/s, 138° | - | - |
| 1777189357 | 23.33° C | 64% | 1003.8 hPa | 0 mm | 3.58 m/s, 100° | - | - |
| 1777189055 | 23.33° C | 63% | 1003.8 hPa | 0 mm | 4.47 m/s, 110° | - | - |
* Rain latest hour (hover to see other rain measurements)
** Current wind speed in m/s (hover to see current wind gust speed)